EDT,Max TemperatureF,Mean TemperatureF,Min TemperatureF,Max Dew PointF,MeanDew PointF,Min DewpointF,Max Humidity, Mean Humidity, Min Humidity, Max Sea Level PressureIn, Mean Sea Level PressureIn, Min Sea Level PressureIn, Max VisibilityMiles, Mean VisibilityMiles, Min VisibilityMiles, Max Wind SpeedMPH, Mean Wind SpeedMPH, Max Gust SpeedMPH,PrecipitationIn, CloudCover, Events, WindDirDegrees
2013-9-1,77,72,66,73,69,66,100,96,78,30.02,29.98,29.95,10,9,2,15,4,20,0.43,5,Rain-Thunderstorm,206
2013-9-2,82,73,64,73,69,64,100,92,65,30.05,29.99,29.95,10,6,0,18,4,25,0.10,5,Fog-Rain-Thunderstorm,232
2013-9-3,77,68,59,72,64,59,100,87,57,30.14,30.05,29.97,10,8,1,13,5,16,0.08,4,Rain-Thunderstorm,297
2013-9-4,78,66,55,64,59,54,100,84,44,30.24,30.19,30.13,10,8,0,9,1,,0.00,1,Fog,10
2013-9-5,77,65,53,63,59,54,100,82,47,30.29,30.25,30.22,10,10,1,10,2,,0.00,0,,8
2013-9-6,80,70,59,68,60,55,100,79,51,30.29,30.25,30.20,10,10,4,8,2,,0.00,1,,6
2013-9-7,80,68,57,66,61,55,100,80,54,30.22,30.17,30.11,10,10,10,8,1,,0.00,1,,269
2013-9-8,80,70,60,70,65,61,100,85,58,30.14,30.11,30.09,10,10,7,6,1,,0.00,4,Rain,340
2013-9-9,82,72,62,70,65,63,100,80,51,30.25,30.19,30.14,10,8,1,12,3,16,0.00,0,,176
2013-9-10,82,73,64,70,66,64,100,80,54,30.35,30.30,30.24,10,10,10,9,5,,0.00,1,,200
2013-9-11,78,72,66,72,68,66,100,90,74,30.34,30.29,30.22,10,9,1,8,3,,0.00,4,Thunderstorm,232
2013-9-12,82,73,64,73,66,61,100,90,54,30.21,30.11,30.00,10,6,0,16,4,31,0.09,5,Fog-Rain-Thunderstorm,245
2013-9-13,68,60,51,63,56,46,100,82,52,30.08,30.01,29.98,10,8,0,12,7,18,0.00,6,Fog,320
2013-9-14,68,57,46,52,49,46,100,80,49,30.18,30.13,30.07,10,10,3,9,4,,0.00,2,,25
2013-9-15,73,62,50,59,54,46,100,74,50,30.27,30.21,30.17,10,10,10,13,4,18,0.00,1,,193
2013-9-16,68,62,55,64,59,54,100,90,73,30.31,30.24,30.20,10,10,7,9,4,,0.00,5,Rain,336
2013-9-17,75,62,50,59,55,50,100,83,57,30.33,30.29,30.25,10,7,0,8,3,,0.00,4,Fog,141
2013-9-18,62,58,55,61,56,52,100,92,72,30.30,30.26,30.22,10,7,2,8,6,,0.31,5,Rain,187
2013-9-19,73,66,59,70,63,59,100,95,73,30.25,30.21,30.16,10,7,2,9,5,,0.01,6,Rain,223
2013-9-20,78,69,60,70,64,61,100,86,61,30.17,30.10,29.98,10,8,4,10,4,,0.00,3,,210
2013-9-21,68,62,55,64,62,55,100,95,83,29.98,29.88,29.83,10,9,2,13,7,18,0.66,5,Rain,208
2013-9-22,68,59,50,59,52,50,100,89,56,30.04,29.96,29.89,10,8,1,8,3,,0.01,4,,353
2013-9-23,69,58,46,61,53,46,100,91,64,30.11,30.08,30.02,10,8,0,7,3,,0.00,2,Fog,22
2013-9-24,73,62,51,63,56,52,100,82,53,30.13,30.07,30.00,10,10,2,6,2,,0.00,3,,271
2013-9-25,64,62,59,64,60,55,100,94,82,30.00,29.96,29.93,10,9,0,8,2,,0.09,7,Fog-Rain,123
2013-9-26,71,64,57,61,58,52,100,86,50,30.14,30.05,29.97,10,7,0,8,3,,0.04,4,Fog-Rain,13
2013-9-27,73,62,51,64,54,48,100,78,44,30.23,30.19,30.14,10,8,0,8,1,,0.00,1,Fog,17
2013-9-28,73,63,53,57,54,52,94,75,50,30.30,30.24,30.20,10,10,7,8,3,,0.00,2,,171
2013-9-29,68,62,55,59,55,52,100,85,68,30.21,30.16,30.10,10,10,10,8,4,,0.00,6,,195
2013-9-30,69,61,53,63,58,54,100,91,64,30.15,30.12,30.08,10,8,0,7,1,,0.00,5,Fog,193